DW9408 Weather Reports


Display with metric or nautical units.
time (UTC)temp
F
wind
direction
speed
MPH
gust
MPH
rain 1hr
in
rain 24hr
in
rain mn
in
humidity
%
barometer
mb
20260504213511 77 184 1.0 10.0 0.00 0.00 0.00 40 1012.8
20260504213012 77 202 3.0 10.0 0.00 0.00 0.00 39 1012.8
20260504212508 77 207 3.0 10.0 0.00 0.00 0.00 36 1012.8
20260504212008 77 213 2.0 9.0 0.00 0.00 0.00 39 1012.9
20260504211509 77 190 2.0 9.0 0.00 0.00 0.00 36 1012.9
20260504211008 77 215 3.0 12.0 0.00 0.00 0.00 36 1012.9
20260504210509 76 231 3.0 12.0 0.00 0.00 0.00 35 1013.0
20260504210008 77 232 3.0 11.0 0.00 0.00 0.00 36 1013.0
20260504205509 77 236 3.0 8.0 0.00 0.00 0.00 34 1013.1
20260504205009 77 217 2.0 10.0 0.00 0.00 0.00 36 1013.1
20260504204505 76 176 1.0 10.0 0.00 0.00 0.00 38 1013.1
20260504204006 76 181 2.0 9.0 0.00 0.00 0.00 35 1013.1
20260504203506 76 186 3.0 9.0 0.00 0.00 0.00 35 1013.2
20260504203236 76 198 3.0 9.0 0.00 0.00 0.00 33 1013.2
20260504202506 76 223 1.0 8.0 0.00 0.00 0.00 38 1013.2
20260504202237 76 155 1.0 6.0 0.00 0.00 0.00 35 1013.2
20260504201505 76 178 2.0 6.0 0.00 0.00 0.00 37 1013.3
20260504201004 76 173 2.0 6.0 0.00 0.00 0.00 35 1013.4
20260504200506 76 193 1.0 6.0 0.00 0.00 0.00 33 1013.5
20260504200233 76 159 2.0 10.0 0.00 0.00 0.00 34 1013.5
20260504195501 77 207 3.0 10.0 0.00 0.00 0.00 36 1013.6
20260504195233 77 183 3.0 7.0 0.00 0.00 0.00 33 1013.7
20260504194501 77 225 3.0 12.0 0.00 0.00 0.00 35 1013.6
20260504194233 77 184 2.0 12.0 0.00 0.00 0.00 35 1013.6
20260504193502 77 190 3.0 10.0 0.00 0.00 0.00 36 1013.7
20260504193001 77 223 3.0 15.0 0.00 0.00 0.00 38 1013.8
20260504192500 77 238 1.0 15.0 0.00 0.00 0.00 35 1013.9
20260504192000 77 156 3.0 13.0 0.00 0.00 0.00 35 1013.9
20260504191507 77 163 4.0 13.0 0.00 0.00 0.00 38 1014.0
20260504191001 77 196 3.0 11.0 0.00 0.00 0.00 38 1014.1
20260504185949 78 161 2.0 7.0 0.00 0.00 0.00 38 1014.2
20260504185443 78 259 1.0 4.0 0.00 0.00 0.00 37 1014.1
20260504184938 77 148 1.0 6.0 0.00 0.00 0.00 36 1014.2
20260504184702 77 137 2.0 7.0 0.00 0.00 0.00 36 1014.3
20260504183925 77 217 1.0 7.0 0.00 0.00 0.00 36 1014.3
20260504183425 77 112 1.0 7.0 0.00 0.00 0.00 36 1014.3
20260504183145 77 179 1.0 7.0 0.00 0.00 0.00 41 1014.3
20260504182407 77 163 1.0 6.0 0.00 0.00 0.00 38 1014.4
20260504181356 76 159 1.0 7.0 0.00 0.00 0.00 37 1014.4
20260504180850 76 88 1.0 9.0 0.00 0.00 0.00 35 1014.5
20260504180344 76 139 1.0 9.0 0.00 0.00 0.00 36 1014.6
20260504175837 76 177 1.0 4.0 0.00 0.00 0.00 37 1014.7
20260504175331 76 153 0.0 3.0 0.00 0.00 0.00 35 1014.8
20260504174825 76 150 2.0 6.0 0.00 0.00 0.00 35 1014.9
20260504174319 75 156 3.0 7.0 0.00 0.00 0.00 35 1014.9
20260504173819 75 277 2.0 8.0 0.00 0.00 0.00 36 1015.0
20260504173307 75 191 1.0 8.0 0.00 0.00 0.00 37 1015.0
20260504172801 75 246 2.0 6.0 0.00 0.00 0.00 39 1015.1
20260504172255 74 240 2.0 5.0 0.00 0.00 0.00 44 1015.1
20260504171750 74 198 3.0 7.0 0.00 0.00 0.00 43 1015.1
20260504171244 74 199 3.0 7.0 0.00 0.00 0.00 43 1015.1
20260504171008 73 184 3.0 8.0 0.00 0.00 0.00 41 1015.1
20260504170232 74 209 3.0 8.0 0.00 0.00 0.00 40 1015.3
20260504160121 71 265 0.0 6.0 0.00 0.00 0.00 46 1016.3
20260504151019 68 190 0.0 5.0 0.00 0.00 0.00 56 1016.8
20260504150748 67 213 1.0 7.0 0.00 0.00 0.00 56 1017.0
20260504141001 64 302 0.0 0.0 0.00 0.00 0.00 64 1017.1
20260504140501 64 302 0.0 0.0 0.00 0.00 0.00 60 1017.0
20260504110336 36 190 0.0 0.0 0.00 0.00 0.00 98 1016.9
20260504100456 37 190 0.0 0.0 0.00 0.00 0.00 97 1016.4
20260504090112 37 190 0.0 0.0 0.00 0.00 0.00 97 1016.7
20260504081244 38 190 0.0 0.0 0.00 0.00 0.00 97 1016.1
20260504080506 38 190 0.0 0.0 0.00 0.00 0.00 97 1016.0
20260504070213 40 190 0.0 0.0 0.00 0.00 0.00 96 1016.2
20260504060202 41 190 0.0 0.0 0.00 0.00 0.00 96 1016.3
20260504050429 42 190 0.0 0.0 0.00 0.00 0.00 95 1016.6
20260504045930 42 190 0.0 0.0 0.00 0.00 0.00 95 1016.5
20260504044931 42 190 0.0 0.0 0.00 0.00 0.00 94 1016.2
20260504044423 43 190 0.0 0.0 0.00 0.00 0.00 94 1016.1
20260504043918 43 190 0.0 0.0 0.00 0.00 0.00 94 1016.1
20260504043410 43 190 0.0 0.0 0.00 0.00 0.00 94 1016.0
20260504042904 43 190 0.0 0.0 0.00 0.00 0.00 94 1016.0
20260504042358 43 190 0.0 0.0 0.00 0.00 0.00 94 1016.1
20260504041854 44 190 0.0 0.0 0.00 0.00 0.00 93 1016.1
20260504040842 44 190 0.0 0.0 0.00 0.00 0.00 93 1016.2
20260504040336 44 190 0.0 0.0 0.00 0.00 0.00 93 1016.3
20260504035831 44 190 0.0 0.0 0.00 0.00 0.00 92 1016.2
20260504035326 45 190 0.0 0.0 0.00 0.00 0.00 92 1016.2
20260504034818 45 190 0.0 0.0 0.00 0.00 0.00 92 1016.2
20260504034312 45 190 0.0 0.0 0.00 0.00 0.00 92 1016.3
20260504033809 45 190 0.0 0.0 0.00 0.00 0.00 92 1016.4
20260504033301 45 190 0.0 0.0 0.00 0.00 0.00 91 1016.4
20260504032755 45 190 0.0 0.0 0.00 0.00 0.00 91 1016.4
20260504032248 46 190 0.0 0.0 0.00 0.00 0.00 91 1016.5
20260504031742 46 190 0.0 0.0 0.00 0.00 0.00 90 1016.5
20260504031236 46 190 0.0 0.0 0.00 0.00 0.00 90 1016.6
20260504030730 46 190 0.0 0.0 0.00 0.00 0.00 90 1016.6
20260504030224 46 190 0.0 0.0 0.00 0.00 0.00 90 1016.6
20260504025718 46 190 0.0 0.0 0.00 0.00 0.00 89 1016.5
20260504025213 47 190 0.0 0.0 0.00 0.00 0.00 89 1016.5
20260504024707 47 190 0.0 0.0 0.00 0.00 0.00 89 1016.5
20260504024200 47 190 0.0 0.0 0.00 0.00 0.00 88 1016.4
20260504023654 47 190 0.0 0.0 0.00 0.00 0.00 87 1016.3
20260504023148 48 190 0.0 0.0 0.00 0.00 0.00 86 1016.3
20260504022642 48 190 0.0 0.0 0.00 0.00 0.00 86 1016.1
20260504022407 48 190 0.0 0.0 0.00 0.00 0.00 85 1016.2
20260504021631 49 190 0.0 0.0 0.00 0.00 0.00 85 1016.2
20260504021125 49 190 0.0 0.0 0.00 0.00 0.00 85 1016.0
20260504020619 49 190 0.0 0.0 0.00 0.00 0.00 84 1016.0
20260504020113 49 190 0.0 0.0 0.00 0.00 0.00 84 1016.0
20260504015606 50 190 0.0 0.0 0.00 0.00 0.00 82 1016.0
20260504015100 50 190 0.0 0.0 0.00 0.00 0.00 82 1015.7
20260504014554 50 190 0.0 0.0 0.00 0.00 0.00 81 1015.6
20260504014049 51 190 0.0 0.0 0.00 0.00 0.00 80 1015.5
20260504013814 51 190 0.0 0.0 0.00 0.00 0.00 79 1015.5
20260504013036 52 190 0.0 0.0 0.00 0.00 0.00 78 1015.4
20260504012805 53 190 0.0 0.0 0.00 0.00 0.00 76 1015.4
20260504012255 53 190 0.0 0.0 0.00 0.00 0.00 75 1015.3
20260504011518 54 190 0.0 0.0 0.00 0.00 0.00 73 1015.3
20260504011244 55 190 0.0 0.0 0.00 0.00 0.00 72 1015.2
20260504010506 55 190 0.0 0.0 0.00 0.00 0.00 71 1015.1
20260504010001 56 190 0.0 0.0 0.00 0.00 0.00 69 1015.1
20260504005455 57 190 0.0 0.0 0.00 0.00 0.00 68 1015.1
20260504004948 57 190 0.0 0.0 0.00 0.00 0.00 66 1015.0
20260504004442 58 190 0.0 0.0 0.00 0.00 0.00 65 1015.0
20260504003937 59 190 0.0 0.0 0.00 0.00 0.00 63 1015.0
20260504003431 60 190 0.0 0.0 0.00 0.00 0.00 63 1015.0
20260504002925 60 190 0.0 0.0 0.00 0.00 0.00 61 1014.9
20260504002422 61 190 0.0 0.0 0.00 0.00 0.00 58 1014.9
20260504001919 62 190 0.0 0.0 0.00 0.00 0.00 58 1014.9
20260504001419 62 190 0.0 0.0 0.00 0.00 0.00 56 1014.9
20260504000920 63 190 0.0 0.0 0.00 0.00 0.00 55 1014.9
20260504000418 63 190 0.0 0.0 0.00 0.00 0.00 53 1014.8
20260503235916 64 190 0.0 0.0 0.00 0.00 0.00 51 1014.8
20260503235647 65 190 0.0 1.0 0.00 0.00 0.00 50 1014.7
20260503234414 65 207 0.0 3.0 0.00 0.00 0.00 48 1014.8
20260503233911 66 216 0.0 4.0 0.00 0.00 0.00 47 1014.7
20260503233410 66 221 0.0 4.0 0.00 0.00 0.00 47 1014.7
20260503232911 67 189 0.0 3.0 0.00 0.00 0.00 46 1014.7
20260503231909 67 202 1.0 8.0 0.00 0.00 0.00 45 1014.6
20260503231409 67 200 1.0 4.0 0.00 0.00 0.00 45 1014.6
20260503230907 67 211 1.0 4.0 0.00 0.00 0.00 44 1014.6
20260503230406 67 234 2.0 7.0 0.00 0.00 0.00 44 1014.6
20260503225903 68 200 2.0 7.0 0.00 0.00 0.00 44 1014.7
20260503225400 68 204 2.0 6.0 0.00 0.00 0.00 44 1014.7
20260503225131 68 221 1.0 6.0 0.00 0.00 0.00 45 1014.7
20260503224359 68 219 2.0 6.0 0.00 0.00 0.00 44 1014.8
20260503223859 68 208 1.0 6.0 0.00 0.00 0.00 45 1014.8
20260503222856 69 202 1.0 5.0 0.00 0.00 0.00 43 1014.8
20260503222357 69 188 2.0 5.0 0.00 0.00 0.00 40 1014.8
20260503221858 69 212 1.0 5.0 0.00 0.00 0.00 42 1014.8
20260503220858 69 200 2.0 11.0 0.00 0.00 0.00 42 1014.7
20260503220359 69 234 3.0 8.0 0.00 0.00 0.00 41 1014.8
20260503215857 69 209 2.0 8.0 0.00 0.00 0.00 40 1014.8
20260503215357 69 227 1.0 7.0 0.00 0.00 0.00 44 1014.9
20260503214857 69 200 1.0 7.0 0.00 0.00 0.00 41 1014.9
20260503214357 69 213 1.0 6.0 0.00 0.00 0.00 39 1014.9